Home > Weather > Hollywood > Past weeks

Flag for U.S.A. Weather for the Past 2 Weeks in Hollywood, Florida, U.S.A.

Now
49 °F

Passing clouds.


Feels Like: 46 °F
Forecast: 46 / 67 °F
Wind: 6 mph from Northwest

Location: Fort Lauderdale / Hollywood International Airport

Current Time: Feb 11, 2016 at 5:50:31 AM

Latest Report: Feb 11, 2016 at 4:53 AM


Visibility: 10 mi

Pressure: 30.24 "Hg

Humidity: 71%

Dew point: 40 °F

Location of HollywoodLocation

Historic Weather in Hollywood — Graph

°F

Hollywood Temperature Yesterday

Maximum temperature yesterday: 62 °F (at 11:53 AM)
Minimum temperature yesterday: 53 °F (at 11:53 PM)
Average temperature yesterday: 58 °F

High & Low Weather Summary for the Past Weeks

 TemperatureHumidityPressure
High81 °F (Feb 2, 12:53 PM)100% (Jan 27, 11:53 PM)30.27 "Hg (Jan 27, 11:53 PM)
Low48 °F (Feb 8, 6:53 AM)33% (Feb 7, 4:53 PM)29.77 "Hg (Jan 28, 6:53 PM)
Average67 °F74%30.05 "Hg
* Reported Jan 27 4:53 AM — Feb 11 4:53 AM, Hollywood, Weather by CustomWeather, © 2016

Note: Actual official high and low records may vary slightly from our data, if they occured in-between our weather recording intervals... More about our weather records

Advertising

Hollywood Weather History for the Previous 24 Hours

 ConditionsComfort  
Time TempWeatherWind HumidityBarometerVisibility
4:53 AM
Thu, Feb 11
49 °FPassing clouds.6 mph71%30.24 "Hg10 mi
3:53 AM49 °FPassing clouds.6 mph71%30.23 "Hg10 mi
2:53 AM50 °FPassing clouds.7 mph68%30.24 "Hg10 mi
1:53 AM50 °FPassing clouds.6 mph66%30.25 "Hg10 mi
12:53 AM51 °FPassing clouds.6 mph66%30.25 "Hg10 mi
11:53 PM
Wed, Feb 10
53 °FPassing clouds.7 mph69%30.26 "Hg10 mi
10:53 PM55 °FPassing clouds.7 mph67%30.27 "Hg10 mi
9:53 PM57 °FPassing clouds.15 mph64%30.25 "Hg10 mi
8:53 PM59 °FPassing clouds.10 mph58%30.24 "Hg10 mi
7:53 PM59 °FPassing clouds.9 mph60%30.23 "Hg10 mi
6:53 PM59 °FPassing clouds.8 mph56%30.20 "Hg10 mi
5:53 PM60 °FPartly sunny.6 mph49%30.19 "Hg10 mi
4:53 PM61 °FPartly sunny.8 mph44%30.18 "Hg10 mi
3:53 PM61 °FPartly sunny.12 mph42%30.18 "Hg10 mi
2:53 PM62 °FSunny.9 mph41%30.18 "Hg10 mi
1:53 PM61 °FSunny.9 mph46%30.19 "Hg10 mi
12:53 PM61 °FHigh level clouds.5 mph42%30.22 "Hg10 mi
11:53 AM62 °FHigh level clouds.8 mph41%30.23 "Hg10 mi
10:53 AM60 °FHigh level clouds.8 mph44%30.25 "Hg10 mi
9:53 AM58 °FHigh level clouds.10 mph54%30.24 "Hg10 mi
8:53 AM57 °FOvercast.7 mph58%30.23 "Hg10 mi
7:53 AM54 °FOvercast.3 mph69%30.19 "Hg10 mi
6:53 AM54 °FMostly cloudy.8 mph74%30.17 "Hg10 mi
5:53 AM55 °FPassing clouds.5 mph69%30.15 "Hg10 mi
Weather by CustomWeather, © 2016

See weather overviewHow to use our weather pages